FENGYUN 1C DEB, 37589

Orbit data source: Space-Track

FENGYUN 1C DEB, 37589 is space debris in SSO originally from a launch on Mon, 10 May 1999 UTC launched from the Taiyaun Space Center, China (TSC). Fengyun 1C debris stems from the Chinese weather satellite Fengyun-1C, which was intentionally destroyed by a Chinese anti-satellite missile in 2007. This event dramatically increased the amount of space debris, with thousands of trackable fragments posing hazards to satellites and human spaceflight. The Fengyun 1C debris cloud has become a focal point in discussions about space sustainability and the need for international regulations to prevent the creation of new debris.

Loading next visibility...
Identifier
37589, 1999-025EKH
Orbit
SSO
Country
Flag of CNCN / PRC
Related business
Manufacturer
Unknown
Mission
Spacecraft
Bus & Motor
Unknown
Mass
Unknown
Launch date (UTC)
1999-05-10 (27 years ago)
Launch vehicle
Unknown
Launch site
Taiyaun Space Center, China (TSC)
Object type
Payload
Rocket body
Debris
Shape & HBR
Unknown shape, 0.1 m
Radar Cross Section
Small (<0.1 m²)

Expand to show TLE details & history
Last TLE update: 2 weeks ago

TLE from 2 weeks ago
0 FENGYUN 1C DEB
1 37589U 99025EKH 26242.96342787  .00002823  00000-0  15194-2 0  9996
2 37589  99.0681 152.5604 0112554 252.6063 106.2774 14.10479981862649
Epoch: 2026-08-30T23:07Z
TLE epoch observation values (Epoch: 2026-08-30T23:07:20.167Z)
Latitude
-0.00003°
Longitude
-173.4251°
Altitude
884.292 km
Speed
7.398 km/s
True Right ascension
10h 10m 14s
True Declination
0° 00' 00"
Sunlit
Object was in daylight at epoch
Visualization orbit readout
Latitude
Unknown
Longitude
Unknown
Altitude
Unknown
Speed
Unknown
Apparent Right ascension
Unknown
Apparent Declination
Unknown
Sunlit
N/A
Visualization observer readout
Local Sidereal Time
05:38:53
Azimuth
Unknown
Elevation
Unknown
Doppler factor
Unknown
Orbital elements
Apogee altitude
936.329 km
Perigee altitude
773.507 km
Semi-major axis
7,233.055 km
Eccentricity
0.01126
Inclination
99.0681°
RAAN
152.5604°
Arg. of periapsis
252.6063°
True anomaly
107.51052°
Mean anomaly
106.2774°
Eccentric anomaly
106.89445°
Mean motion
3.52826 °/min
Orbital period
102.03 mins
BSTAR
0.0015194
Loading maneuver chart data...
Computing Atmospheric mass density...
Loading historical data...
Loading historical data...
Loading historical data...
Loading historical data...
Loading historical data...
Loading historical data...
Loading historical data...

Documentation

Showing up to 5 results
|